Location: Newark
(51.2625°N, 13.3939°E)
Time: 20:31:44
(UTC+00:00)

Explorer 7 - Pass Details

Date: 13 November 2019
Orbit: 485 x 680 km, 50.3° (Epoch: 14 December)

Event Time Altitude Azimuth Distance (km) Brightness Sun altitude
Rises 05:17:29 0° 277° (W) 2,731 - -9.8°
Reaches altitude 10° 05:19:47 10° 275° (W) 1,803 - -9.4°
Exits shadow 05:20:08 12° 274° (W) 1,667 8.6 -9.4°
Maximum altitude 05:23:50 68° 193° (SSW) 563 6.9 -8.8°
Drops below altitude 10° 05:27:40 10° 110° (ESE) 1,708 11.1 -8.3°
Sets 05:29:49 0° 108° (ESE) 2,572 12.9 -7.9°
